Rock Hill, SC

6:09 AM EDT on April 25, 2017 (GMT -0400)
Rock Hill-York County-Bryant

Weather History for KUZA - August, 2012

Change the Weather History Date:

Thursday, August 16, 2012

  Actual Average Record
Temperature  
Mean Temperature 74 °F -  
Max Temperature 88 °F 88 °F 103 °F (1954)
Min Temperature 62 °F 69 °F 59 °F (1964)
Cooling Degree Days 9    
Growing Degree Days 24 (Base 50)    
Moisture  
Dew Point 63 °F    
Average Humidity 72    
Maximum Humidity 97    
Minimum Humidity 41    
Precipitation  
Precipitation 0.00 in - - ()
Sea Level Pressure  
Sea Level Pressure 30.00 in    
Wind  
Wind Speed 2 mph (NNW)    
Max Wind Speed 8 mph    
Max Gust Speed -    
Visibility 10 miles    
Events      
Averages and records for this station are not official NWS values.
T = Trace of Precipitation, MM = Missing Value Source: NWS Daily Summary

Daily Weather History Graph

Daily Weather History Graph

Search for Another Location

Airport or City:

Trip Planner

Search our weather history database for the weather conditions in past years. The results will help you decide how hot, cold, wet, or windy it might be!

Date:

Astronomy

Aug. 16, 2012 Rise Set
Actual Time 6:45 AM EDT 8:10 PM EDT
Civil Twilight 6:18 AM EDT 8:37 PM EDT
Nautical Twilight 5:46 AM EDT 9:09 PM EDT
Astronomical Twilight 5:13 AM EDT 9:42 PM EDT
Moon 5:42 AM EDT (8/16) 7:20 PM EDT (8/16)
Length of Visible Light 14h 18m
Length of Day
13h 25m
Waning Crescent, 1% of the Moon is Illuminated
Aug 16
Waning Crescent
Aug 17
New
Aug 24
First Quarter
Aug 31
Full
Sep 8
Last Quarter

Hourly Weather History & Observations

Time (EDT) Temp. Heat Index Dew Point Humidity Pressure Visibility Wind Dir Wind Speed Gust Speed Precip Events Conditions
12:54 AM 68.0 °F - 66.0 °F 93% 29.99 in 10.0 mi Calm Calm - N/A   Mostly Cloudy
1:54 AM 66.0 °F - 64.9 °F 96% 29.99 in 10.0 mi Calm Calm - N/A   Clear
2:54 AM 64.9 °F - 64.0 °F 97% 29.98 in 10.0 mi Calm Calm - N/A   Clear
3:54 AM 64.0 °F - 63.0 °F 96% 29.98 in 10.0 mi Calm Calm - N/A   Clear
4:54 AM 64.0 °F - 61.0 °F 90% 29.99 in 10.0 mi Calm Calm - N/A   Clear
5:54 AM 62.1 °F - 61.0 °F 96% 30.01 in 10.0 mi North 3.5 mph - N/A   Clear
6:54 AM 63.0 °F - 61.0 °F 93% 30.03 in 10.0 mi Calm Calm - N/A   Clear
7:54 AM 66.9 °F - 64.0 °F 90% 30.04 in 10.0 mi North 3.5 mph - N/A   Clear
8:54 AM 73.0 °F - 66.0 °F 79% 30.04 in 10.0 mi NNE 5.8 mph - N/A   Clear
9:54 AM 77.0 °F - 63.0 °F 62% 30.05 in 10.0 mi North 6.9 mph - N/A   Clear
10:54 AM 80.1 °F 81.7 °F 64.0 °F 58% 30.04 in 10.0 mi NNE 4.6 mph - N/A   Clear
11:54 AM 82.0 °F 84.1 °F 66.0 °F 58% 30.03 in 10.0 mi North - - N/A   Clear
12:54 PM 84.0 °F 85.8 °F 64.9 °F 53% 30.03 in 10.0 mi Variable 3.5 mph - N/A   Clear
1:54 PM 86.0 °F 87.3 °F 64.0 °F 48% 30.03 in 10.0 mi NW 8.1 mph - N/A   Clear
2:54 PM 86.0 °F 87.3 °F 64.0 °F 48% 30.01 in 10.0 mi NNW 6.9 mph - N/A   Clear
3:54 PM 86.0 °F 86.1 °F 61.0 °F 43% 29.99 in 10.0 mi West 5.8 mph - N/A   Clear
4:54 PM 86.0 °F 86.1 °F 61.0 °F 43% 29.97 in 10.0 mi Variable 4.6 mph - N/A   Clear
5:54 PM 86.0 °F 85.7 °F 60.1 °F 41% 29.95 in 10.0 mi Calm Calm - N/A   Clear
6:54 PM 84.9 °F 84.8 °F 60.1 °F 43% 29.94 in 10.0 mi Calm Calm - N/A   Clear
7:54 PM 78.1 °F - 66.0 °F 66% 29.95 in 10.0 mi SW 3.5 mph - N/A   Clear
8:54 PM 71.1 °F - 64.9 °F 81% 29.96 in 10.0 mi SW 3.5 mph - N/A   Clear
9:54 PM 69.1 °F - 64.0 °F 84% 29.99 in 10.0 mi Calm Calm - N/A   Clear
10:54 PM 70.0 °F - 63.0 °F 78% 30.01 in 10.0 mi Calm Calm - N/A   Clear
11:54 PM 68.0 °F - 63.0 °F 84% 30.00 in 10.0 mi Calm Calm - N/A   Clear